This demonstration page uses our WeatherBlox Daily Observations layout. Learn more.

Left ArrowRight Arrow

Hourly Observations for August 7, 2021

Temp ( °F °C ) Dew Point ( °F °C ) Humidity (%) Winds ( mph kmh ) Pressure ( in mb ) Visibility ( mi km ) Precip ( " mm )
12:54 am 00:54 Clear 80 26.7 67 19.4 64 64 S 15 24 29.81 1009 10 16 0.00 0.00
1:54 am 01:54 Clear 80 26.7 68 20 67 67 S 16 26 29.80 1009 10 16 0.00 0.00
2:54 am 02:54 Clear 80 26.7 68 20 67 67 SSW 10 17 29.83 1010 10 16 0.00 0.00
3:54 am 03:54 Clear 78 25.6 68 20 71 71 S 13 20 29.80 1009 10 16 0.00 0.00
4:54 am 04:54 Clear 77 25 68 20 74 74 S 13 20 29.77 1008 10 16 0.00 0.00
5:54 am 05:54 Clear 77 25 69 20.6 77 77 SSW 13 20 29.77 1008 10 16 0.00 0.00
6:54 am 06:54 Sunny 77 25 69 20.6 77 77 S 13 20 29.76 1008 9 14 0.00 0.00
7:54 am 07:54 Sunny 78 25.6 69 20.6 74 74 S 14 22 29.77 1008 9 14 0.00 0.00
8:54 am 08:54 Partly Cloudy 78 25.6 68 20 71 71 S 16 26 29.77 1008 9 14 0.00 0.00
9:54 am 09:54 Mostly Sunny 79 26.1 69 20.6 72 72 S 18 30 29.76 1008 9 14 0.00 0.00
10:54 am 10:54 Partly Cloudy 79 26.1 69 20.6 72 72 SSW 17 28 29.79 1009 9 14 0.00 0.00
11:54 am 11:54 Sunny 79 26.1 69 20.6 72 72 SSW 13 20 29.81 1010 9 14 0.00 0.00
12:54 pm 12:54 Mostly Sunny 79 26.1 70 21.1 74 74 S 7 11 29.83 1010 9 14 0.00 0.00
1:32 pm 13:32 Mostly Cloudy with Thunderstorms 79 26.1 69 20.6 72 72 SE 9 15 29.78 1009 9 14 0.00 0.00
1:47 pm 13:47 Partly Cloudy with Light Rain 78 25.6 70 21.1 76 76 E 9 15 29.73 1007 10 16 0.00 0.00
1:54 pm 13:54 Mostly Cloudy with Nearby Thunderstorms 78 25.6 70 21.1 76 76 ESE 9 15 29.77 1008 9 14 0.00 0.00
2:14 pm 14:14 Mostly Sunny 79 26.1 71 21.7 77 77 SSW 16 26 29.78 1009 9 14 0.00 0.00
2:24 pm 14:24 Partly Cloudy with Light Rain 79 26.1 71 21.7 77 77 S 10 17 29.77 1008 9 14 0.00 0.00
2:54 pm 14:54 Partly Cloudy with Nearby Thunderstorms 81 27.2 72 22.2 74 74 SE 14 22 29.74 1007 9 14 0.00 0.00
3:13 pm 15:13 Sunny 83 28.3 72 22.2 70 70 SSE 10 17 29.72 1007 9 14 0.00 0.00
3:54 pm 15:54 Sunny 88 31.1 74 23.3 63 63 S 13 20 29.75 1007 10 16 0.00 0.00
4:54 pm 16:54 Sunny 89 31.7 72 22.2 57 57 SSE 14 22 29.73 1007 10 16 0.00 0.00
5:54 pm 17:54 Sunny 91 32.8 73 22.8 56 56 S 13 20 29.72 1007 10 16 0.00 0.00
6:54 pm 18:54 Mostly Sunny 88 31.1 75 23.9 66 66 E 7 11 29.70 1006 10 16 0.00 0.00
7:54 pm 19:54 Partly Cloudy 85 29.4 76 24.4 75 75 ESE 9 15 29.65 1004 9 14 0.00 0.00
8:40 pm 20:40 Cloudy 75 23.9 59 15 58 58 N 15 24 29.65 1004 10 16 0.00 0.00
8:54 pm 20:54 Cloudy 78 25.6 62 16.7 58 58 NNE 13 20 29.69 1006 10 16 0.00 0.00
9:18 pm 21:18 Cloudy with Nearby Thunderstorms 74 23.3 60 15.6 62 62 NE 33 54 29.64 1004 10 16 0.00 0.00
9:34 pm 21:34 Cloudy with Thunderstorms 71 21.7 63 17.2 76 76 ESE 10 17 29.73 1007 10 16 0.00 0.00
9:52 pm 21:52 Cloudy with Thunderstorms 70 21 63 17 78 78 NNW 17 28 29.79 1009 10 16 0.00 0.00
9:54 pm 21:54 Cloudy with Thunderstorms 70 21.1 63 17.2 79 79 NNW 21 33 29.79 1009 10 16 0.00 0.00
9:58 pm 21:58 Cloudy with Nearby Thunderstorms 70 21.1 62 16.7 76 76 NNE 21 33 29.75 1008 10 16 0.00 0.00
10:25 pm 22:25 Cloudy with Thunderstorms 67 19.4 62 16.7 84 84 N 10 17 29.83 1010 8 13 0.01 0.25
10:36 pm 22:36 Cloudy with Strong Thunderstorms 65 18.3 61 16.1 87 87 NE 7 11 29.84 1011 2 2 0.10 2.54
10:42 pm 22:42 Cloudy with Strong Thunderstorms 65 18.3 62 16.7 90 90 WNW 8 13 29.86 1011 1 1 0.32 8.13
10:50 pm 22:50 Cloudy with Nearby Thunderstorms 64 18 63 17 94 94 SW 9 15 29.90 1012 1 2 0.59 14.99
10:51 pm 22:51 Mostly Cloudy with Nearby Thunderstorms 65 18.3 63 17.2 93 93 SSW 9 15 29.90 1013 1 2 0.62 15.75
10:58 pm 22:58 Cloudy with Heavy Rain 65 18.3 63 17.2 93 93 NE 3 6 29.87 1012 2 3 0.06 1.52
11:08 pm 23:08 Cloudy with Nearby Thunderstorms 64 17.8 62 16.7 93 93 ENE 15 24 29.85 1011 3 5 0.16 4.06
11:35 pm 23:35 Cloudy with Thunderstorms 67 19.4 62 16.7 84 84 E 12 19 29.84 1010 10 16 0.20 5.08
11:54 pm 23:54 Cloudy with Light Rain 67 19.4 63 17.2 87 87 NE 12 19 29.84 1011 10 16 0.20 5.08

Powered by AerisWeather